OpenBCM V1.08-5-g2f4a (Linux)

Packet Radio Mailbox

IZ3LSV

[San Dona' di P. JN]

 Login: GUEST





  
CX2SA  > KEPS     25.10.24 01:30l 396 Lines 18915 Bytes #122 (0) @ AMSAT
BID : ORB24292.1
Read: GUEST
Subj: 2Line Orbital Elements 24292.AMSAT
Path: IZ3LSV<I0OJJ<LU1DBQ<LU9DCE<W0ARP<N9PMO<CX2SA
Sent: 241025/0024Z @:CX2SA.SAL.URY.SOAM #:44894 [Salto] FBB7.00e $:ORB24292.1
From: CX2SA@CX2SA.SAL.URY.SOAM
To  : KEPS@AMSAT


QST de W1STR

AMSAT Orbital Elements for Amateur Satellites in TLE Format
>From Orbital Analysis Office
New England Sci-Tech STEM Education Center
Natick, MA October 18, 2024
To all radio amateurs


These element sets describe the orbits of various satellites
in use by the amateur radio community. For details see:
www.amsat.org/keplerian-elements-formats/

A daily update of element sets is available at:
www.amsat.org/tle/daily-bulletin.txt
or without bulletin text:
www.amsat.org/tle/dailytle.txt


AO-07
1 07530U 74089B   24291.74409500 -.00000025  00000-0  13592-3 0  9991
2 07530 101.9884 287.5799 0011970 209.5204 325.3944 12.53681091284634
UO-11
1 14781U 84021B   24291.48056220  .00004572  00000-0  50718-3 0  9993
2 14781  97.7216 257.2492 0009319  43.1666 317.0280 14.87705691166668
AO-27
1 22825U 93061C   24291.58773959  .00000733  00000-0  29806-3 0  9990
2 22825  98.7739 345.5590 0009495  82.4954 277.7306 14.30621435620384
FO-29
1 24278U 96046B   24291.33853594  .00000065  00000-0  10393-3 0  9996
2 24278  98.5821 209.9851 0349101 231.7741 125.1496 13.53217434390952
NOAA-15
1 25338U 98030A   24291.82947487  .00000855  00000-0  37096-3 0  9994
2 25338  98.5604 316.3606 0009639 332.0604  28.0058 14.26756061374921
GO-32
1 25397U 98043D   24291.91017759  .00000603  00000-0  28167-3 0  9993
2 25397  98.9395 260.5651 0001868 128.8850 231.2495 14.24158752365101
ISS
1 25544U 98067A   24291.85109771  .00022522  00000-0  40103-3 0  9990
2 25544  51.6384  67.8283 0009214  79.0908 281.1118 15.49994385477571
NO-44
1 26931U 01043C   24291.48964499  .00001085  00000-0  43923-3 0  9998
2 26931  67.0531  15.5480 0007592 264.6619  95.3616 14.31443103203611
SO-50
1 27607U 02058C   24291.48437230  .00004833  00000-0  65069-3 0  9993
2 27607  64.5555 205.3889 0028829  47.0195 313.3319 14.80002319174412
CO-55
1 27844U 03031E   24291.75422776  .00001711  00000-0  77033-3 0  9993
2 27844  98.6798 297.1129 0010345 143.2163 216.9727 14.23558472105256
CO-57
1 27848U 03031J   24290.96458532  .00001239  00000-0  56972-3 0  9992
2 27848  98.6830 296.5064 0009863 161.1256 199.0290 14.22955110104853
RS-22
1 27939U 03042A   24291.85501987  .00004321  00000-0  71330-3 0  9997
2 27939  98.3054  90.1831 0012282  37.2218  98.9069 14.70903472126301
NOAA-18
1 28654U 05018A   24291.82705946  .00000835  00000-0  46785-3 0  9997
2 28654  98.8656   7.7299 0015149  77.3907 282.8959 14.13378473   583
CO-58
1 28895U 05043F   24291.84148040  .00005816  00000-0  99960-3 0  9997
2 28895  98.2193  68.0586 0014713 332.8248  27.2185 14.68953930 12685
CO-65
1 32785U 08021C   24291.53380513  .00012003  00000-0  98238-3 0  9991
2 32785  97.7732 256.1318 0007357 287.8337  72.2083 14.99451296893796
AAUSAT2
1 32788U 08021F   24291.47162216  .00059556  00000-0  21394-2 0  9997
2 32788  97.6027 272.9393 0009100  95.8652 264.3625 15.28400837896921
CO-66
1 32791U 08021J   24291.80514751  .00020772  00000-0  13331-2 0  9993
2 32791  97.7044 262.7248 0002042 235.7266 124.3769 15.08500647895050
RS-30
1 32953U 08025A   24291.80419916  .00000048  00000-0  27682-3 0  9993
2 32953  82.5086  13.2149 0019630 194.3757 165.6766 12.43150737744362
PRISM
1 33493U 09002B   24291.44278720  .00068392  00000-0  22713-2 0  9990
2 33493  98.1880 350.4050 0010142 183.5189 176.5980 15.30906298857669
NOAA-19
1 33591U 09005A   24291.86691513  .00000781  00000-0  44193-3 0  9992
2 33591  99.0329 348.8874 0012938 308.7587  51.2428 14.13161876808958
SRMSAT
1 37841U 11058D   24291.88462296  .00000977  00000-0  38869-3 0  9991
2 37841  19.9708 134.6053 0011759   4.0254 132.6079 14.11246582672130
RS-40
1 38735U 12041C   24291.56013774  .00000039  00000-0  21384-3 0  9998
2 38735  82.4713  93.5818 0016775 313.8991  46.0703 12.42618478554374
ZACUBE-1
1 39417U 13066B   24291.44965878  .00010257  00000-0  99764-3 0  9992
2 39417  97.7487 244.9464 0050419 114.0476 246.6030 14.91777263589799
Delfi-N3xt
1 39428U 13066N   24291.73970435  .00016767  00000-0  19695-2 0  9997
2 39428  97.8337 207.0528 0097822  51.2606 309.7300 14.81539966584390
GOMX-1
1 39430U 13066Q   24291.60369740  .00006050  00000-0  98156-3 0  9991
2 39430  97.7107 158.5500 0135854 222.8480 136.2075 14.65508414580968
LO-74
1 39440U 13066AA  24291.79954098  .00010236  00000-0  11397-2 0  9990
2 39440  97.8229 233.0390 0064982 231.7935 127.7418 14.85748597587725
AO-73
1 39444U 13066AE  24291.41533413  .00014883  00000-0  13194-2 0  9996
2 39444  97.7332 248.4088 0047780  93.4720 267.1968 14.95424287588356
DTUSAT-2
1 40030U 14033W   24291.84346110  .00015073  00000-0  11611-2 0  9991
2 40030  98.0203 247.8767 0011689 122.0362 238.1998 15.01691397561591
EO-80
1 40032U 14033Y   24291.60906951  .00014220  00000-0  10937-2 0  9995
2 40032  98.0172 247.5963 0013065  78.5618 281.7073 15.01750368561549
XW-2C
1 40906U 15049H   24291.85080550  .00077826  00000-0  10728-2 0  9997
2 40906  97.4668 312.8732 0005540 187.8056 172.3113 15.56944422503453
XW-2D
1 40907U 15049J   24291.75638508  .00274093  00000-0  14699-2 0  9995
2 40907  97.4546 317.4631 0005149 166.8164 193.3238 15.79524687503813
LILACSAT-2
1 40908U 15049K   24291.84481885  .00017335  00000-0  59130-3 0  9994
2 40908  97.5226 301.7534 0009047 280.1333  79.8887 15.30376162502229
XW-2B
1 40911U 15049N   24290.93451387  .00246526  00000-0  15400-2 0  9998
2 40911  97.4533 316.3784 0004914 170.7666 189.3690 15.76152951503535
IO-86
1 40931U 15052B   24270.29994034  .00002074  00000-0  19195-3 0  9996
2 40931   5.9998 350.0993 0012711  76.7416 283.4129 14.78150863486449
ChubuSat-2
1 41338U 16012B   24291.42311674  .00010870  00000-0  63081-3 0  9992
2 41338  31.0016 322.7630 0009686  25.7453 334.3666 15.10860850476080
ChubuSat-3
1 41339U 16012C   24291.75328429  .00010052  00000-0  59697-3 0  9995
2 41339  31.0080 320.0162 0009900  32.3059 327.8184 15.10005659476101
Horyu-4
1 41340U 16012D   24291.24455248  .00026963  00000-0  11363-2 0  9996
2 41340  31.0016 257.2016 0008017 151.2751 208.8333 15.22134108476726
Lapan A3
1 41603U 16040E   24291.86756056  .00007215  00000-0  27545-3 0  9997
2 41603  97.1412 300.1485 0012767  34.5984 325.6084 15.26856421461938
Pratham
1 41783U 16059A   24291.51367784  .00003166  00000-0  58872-3 0  9992
2 41783  97.8328 305.1303 0032061 355.2923   4.7974 14.65470910430452
CAS-2T
1 41847U 16066G   24291.67149760  .00005655  00000-0  82084-3 0  9997
2 41847  98.4495   2.0545 0351453 168.1180 192.8581 14.42088819417143
CAS-4B
1 42759U 17034B   24291.86040994  .00036603  00000-0  10230-2 0  9996
2 42759  43.0152 249.8619 0011344 104.5784 255.6329 15.35996124406215
CAS-4A
1 42761U 17034D   24291.84985975  .00035843  00000-0  99670-3 0  9995
2 42761  43.0189 248.1557 0011627 115.6120 244.5938 15.36159611406229
D-SAT
1 42794U 17036AF  24291.50805574  .00013672  00000-0  88132-3 0  9999
2 42794  97.4884 269.1608 0106787  92.0479 269.2980 15.03750566399117
TechnoSat
1 42829U 17042E   24291.74012766  .00007536  00000-0  63466-3 0  9999
2 42829  97.3871 106.1229 0012437  22.7992 337.3781 14.98421295395511
AO-91
1 43017U 17073E   24291.60335390  .00017425  00000-0  10081-2 0  9991
2 43017  97.5557 162.9163 0196586 243.0187 115.0842 14.97391785373955
TianYi 6
1 43158U 18008D   24289.57081905  .01911305  30434-2  22393-2 0  9995
2 43158  97.2486 341.2486 0006509 265.8690  94.1850 16.09457699373267
S-Net D
1 43186U 18014G   24291.47206032  .00011401  00000-0  76272-3 0  9992
2 43186  97.5771 191.2488 0008826 321.2882  38.7712 15.07073159366903
S-Net B
1 43187U 18014H   24291.80701386  .00011577  00000-0  77438-3 0  9991
2 43187  97.5774 191.5371 0009382 313.9691  46.0762 15.07069972366955
S-Net A
1 43188U 18014J   24291.47308361  .00011416  00000-0  76360-3 0  9996
2 43188  97.5783 191.3313 0009312 316.3983  43.6508 15.07075525366901
S-Net C
1 43189U 18014K   24291.27787510  .00012378  00000-0  82756-3 0  9996
2 43189  97.5793 191.1114 0010858 306.5274  53.4953 15.07059644365424
Ten-Koh
1 43677U 18084G   24291.41592310  .00006494  00000-0  55845-3 0  9994
2 43677  98.0788  88.7882 0013418 336.1316  23.9281 14.97699948325001
PO-101
1 43678U 18084H   24291.89898847  .00004278  00000-0  38358-3 0  9999
2 43678  98.0853  93.6752 0008792 351.9651   8.1427 14.96308235325262
QO-100
1 43700U 18090A   24291.55860265  .00000143  00000-0  00000-0 0  9995
2 43700   0.0135 246.8688 0001448 348.9251  17.6892  1.00271745 21582
MinXSS-2
1 43758U 18099A   24291.14061707  .00024788  00000-0  13617-2 0  9997
2 43758  97.5393 351.9035 0013966 256.4751 103.4925 15.14017476321204
AO-95
1 43770U 18099N   24291.58128506  .00016520  00000-0  10306-2 0  9997
2 43770  97.5306 346.9920 0011540 307.2568  52.7608 15.09534087321004
RANGE-B
1 43772U 18099Q   24291.13339770  .00030027  00000-0  15714-2 0  9993
2 43772  97.5097 350.6073 0004782 196.3271 163.7808 15.15771890321155
RANGE-A
1 43773U 18099R   24291.57363413  .00010361  00000-0  73837-3 0  9993
2 43773  97.4856 340.9476 0011187 277.2284  82.7671 15.04718228320822
MOVE-II
1 43780U 18099Y   24291.15516303  .00055928  00000-0  21661-2 0  9998
2 43780  97.5055 353.6385 0004417 263.2112  96.8624 15.25957070321452
SNUSat 2
1 43782U 18099AA  24291.41542675  .00013866  00000-0  90029-3 0  9990
2 43782  97.4991 345.2849 0012336 240.6901 119.3095 15.08099684320976
SnugLite
1 43784U 18099AC  24291.72288432  .00016118  00000-0  99985-3 0  9997
2 43784  97.4798 344.8808 0002954 237.7593 122.3350 15.09796358321109
ITASat 1
1 43786U 18099AE  24291.55367359  .00012332  00000-0  82004-3 0  9994
2 43786  97.4961 345.4844 0014724 297.3120  62.6608 15.07218994320986
